This is the latest recevied weather packets stored in our database for station/object W2TAO. If no packets are shown the sender has not sent any weather packets the latest 10 day(s).
| Time | Temp. | Humidity | Pressure | Rain* | Wind** | Luminosity | Snow |
|---|---|---|---|---|---|---|---|
| 1777547232 | 7.22° C | 99% | 1009.1 hPa | 0.51 mm | - | 18 W/m² | - |
| 1777546928 | 7.22° C | 99% | 1009 hPa | 0 mm | - | 19 W/m² | - |
| 1777546625 | 7.22° C | 99% | 1008.9 hPa | 0.51 mm | - | 15 W/m² | - |
| 1777546321 | 7.22° C | 99% | 1009 hPa | 0.51 mm | - | 12 W/m² | - |
| 1777546019 | 7.22° C | 99% | 1008.6 hPa | 0 mm | - | 11 W/m² | - |
| 1777545715 | 7.22° C | 99% | 1008.6 hPa | 0 mm | - | 11 W/m² | - |
| 1777545412 | 7.22° C | 99% | 1008.7 hPa | 0 mm | - | 10 W/m² | - |
| 1777545109 | 7.22° C | 99% | 1008.7 hPa | 0 mm | - | 8 W/m² | - |
| 1777544806 | 7.22° C | 99% | 1008.8 hPa | 0 mm | - | 7 W/m² | - |
| 1777544502 | 7.22° C | 99% | 1008.4 hPa | 0 mm | - | 6 W/m² | - |
| 1777544199 | 6.67° C | 99% | 1008.4 hPa | 0 mm | - | 4 W/m² | - |
| 1777543896 | 6.67° C | 99% | 1008.4 hPa | 0 mm | - | 3 W/m² | - |
| 1777543593 | 6.67° C | 99% | 1008.4 hPa | 0 mm | - | 2 W/m² | - |
| 1777543289 | 6.67° C | 99% | 1008.3 hPa | 0 mm | - | 1 W/m² | - |
| 1777542985 | 6.67° C | 99% | 1008.2 hPa | 0 mm | - | 1 W/m² | - |
| 1777542681 | 6.67° C | 99% | 1008.3 hPa | 0 mm | - | 0 W/m² | - |
| 1777542377 | 6.67° C | 99% | 1008.2 hPa | 0.51 mm | - | 0 W/m² | - |
| 1777542074 | 6.67° C | 99% | 1008.2 hPa | 0.51 mm | - | 0 W/m² | - |
| 1777541772 | 6.67° C | 99% | 1008.3 hPa | 0 mm | - | 0 W/m² | - |
| 1777541468 | 6.67° C | 99% | 1008.4 hPa | 0.51 mm | - | 0 W/m² | - |
| 1777541164 | 6.67° C | 99% | 1008.2 hPa | 0 mm | - | 0 W/m² | - |
| 1777540862 | 6.67° C | 99% | 1008.2 hPa | 0 mm | - | 0 W/m² | - |
| 1777540559 | 6.67° C | 99% | 1008.2 hPa | 0 mm | - | 0 W/m² | - |
| 1777540255 | 6.67° C | 99% | 1008 hPa | 0.51 mm | - | 0 W/m² | - |
| 1777539950 | 6.67° C | 99% | 1008.3 hPa | 0.51 mm | - | 0 W/m² | - |
* Rain latest hour (hover to see other rain measurements)
** Current wind speed in m/s (hover to see current wind gust speed)